カタログに戻る

NUVIEW ALPHA

運用中科学GEO
NORAD 62455·PAYLOAD·🇬🇧 United Kingdom

打ち上げ Dec 29, 2024 から Cape Canaveral Space Force Station

Loading…

TLE

最新Source: Space-Track

元期: Sep 14, 2026, 13:24 UTC

1 62455U 24252B   26257.55867749 -.00000223  00000-0  00000-0 0  9998
2 62455   0.0517   8.6238 0000157 128.4526 334.4831  1.00272091  4726

AllMySatでNUVIEW ALPHAをリアルタイム追跡

Download on the App Store